Inquirer Daily News

Weather

Get conditions and forecasts for any City, State, ZIP code or Country:  
Trenton, NJ
on Saturday, January 26, 2013

Saturday
Previous Day Next Day
Daily Summary
 ActualAverageRecord
Temperature
Mean Temperature °F 31°F  
Max Temperature 28°F 39°F 72°F (1950)
Min Temperature 9°F 24°F 1°F (1905)
Degree Days
Heating Degree Days 46 34  
Month to date heating degree days 818 883  
Since 1 July heating degree days 2576 2778  
Cooling Degree Days 0 0  
Month to date cooling degree days 0 0  
Year to date cooling degree days 0 0  
Moisture
Dew Point 8°F   
Average Humidity 67    
Maximum Humidity 92    
Minimum Humidity 42    
Precipitation
Precipitation 0.00 in 0.11 in 1.50 in (1986)
Month to date precipitation 1.70 2.67  
Year to date precipitation 1.70 2.67  
Wind
Wind Speed 6 mph   
Max Wind Speed 17 mph   
Max Gust Speed 23 mph   
Visibility 9 miles   
Events     

Key: T is trace of precipitation, MM is missing value
Source: NWS Daily Summary
Time(EST)TemperatureDew PointHumidity Pressure Visibility Wind DirectionWind SpeedGust SpeedPrecipitationEvents Conditions
12:53 AM 10.9°F 9.0°F 92% 30.07 in 7.0 miles North 3.5 mph - N/A   Clear
1:53 AM 10.9°F 8.1°F 88% 30.07 in 7.0 miles Calm Calm - N/A   Scattered Clouds
2:08 AM 10.4°F 6.8°F 85% 30.07 in 7.0 miles Calm Calm - N/A   Mostly Cloudy
2:36 AM 10.4°F 6.8°F 85% 30.07 in 9.0 miles WNW 4.6 mph - N/A   Scattered Clouds
2:53 AM 10.9°F 8.1°F 88% 30.06 in 9.0 miles NNW 4.6 mph - N/A   Clear
3:53 AM 12.9°F 9.0°F 84% 30.05 in 9.0 miles NW 5.8 mph - N/A   Clear
4:53 AM 14.0°F 10.0°F 84% 30.07 in 9.0 miles NNW 5.8 mph - N/A   Overcast
5:53 AM 15.1°F 10.9°F 84% 30.10 in 9.0 miles Calm Calm - N/A   Overcast
6:53 AM 16.0°F 12.0°F 84% 30.12 in 9.0 miles NW 3.5 mph - N/A   Overcast
7:53 AM 16.0°F 10.9°F 81% 30.14 in 8.0 miles NNW 5.8 mph - N/A   Overcast
8:53 AM 18.0°F 10.0°F 71% 30.17 in 9.0 miles NNW 4.6 mph - N/A   Overcast
9:53 AM 19.0°F 9.0°F 65% 30.17 in 10.0 miles NNW 8.1 mph - N/A   Overcast
10:53 AM 21.0°F 8.1°F 57% 30.17 in 10.0 miles NNW 8.1 mph - N/A   Overcast
11:53 AM 23.0°F 8.1°F 53% 30.18 in 10.0 miles North 11.5 mph 23.0 mph N/A   Overcast
12:53 PM 25.0°F 9.0°F 51% 30.15 in 10.0 miles NNW 10.4 mph - N/A   Clear
1:53 PM 26.1°F 7.0°F 44% 30.15 in 10.0 miles NNW 10.4 mph 21.9 mph N/A   Clear
2:53 PM 27.0°F 8.1°F 45% 30.17 in 10.0 miles NNW 11.5 mph - N/A   Clear
3:53 PM 27.0°F 7.0°F 43% 30.18 in 10.0 miles North 13.8 mph 21.9 mph N/A   Clear
4:53 PM 26.1°F 6.1°F 43% 30.20 in 10.0 miles NNW 10.4 mph 21.9 mph N/A   Clear
5:53 PM 25.0°F 6.1°F 45% 30.24 in 10.0 miles NNW 6.9 mph - N/A   Clear
6:53 PM 24.1°F 6.1°F 46% 30.27 in 10.0 miles North 6.9 mph - N/A   Clear
7:53 PM 23.0°F 6.1°F 48% 30.30 in 10.0 miles North 8.1 mph - N/A   Clear
8:53 PM 21.0°F 5.0°F 50% 30.32 in 10.0 miles NNW 4.6 mph - N/A   Clear
9:53 PM 19.9°F 5.0°F 52% 30.35 in 10.0 miles Calm Calm - N/A   Clear
10:53 PM 19.9°F 5.0°F 52% 30.38 in 10.0 miles Calm Calm - N/A   Clear
11:53 PM 17.1°F 5.0°F 59% 30.39 in 10.0 miles NNW 4.6 mph - N/A   Clear
Astronomy
Sunrise:07:13 AM (EST) Moon Rise:05:03 PM (EST)1/26
Sunset:05:10 PM (EST) Moon Set:06:29 AM (EST)1/26
Moon Phase
Jan. 26 Jan. 26 Feb. 03 Feb. 10 Feb. 17

Copyright © 2014 The Weather Underground, Inc.